Torna al catalogo

DELTA 1 DEB

AttivoLEO
NORAD 12532·DEBRIS·🇺🇸 United States

Lanciato Jul 29, 1976 da Vandenberg Space Force Base

Loading…

Prossimi Passaggi (prossime 24 ore)

TLE

AggiornatoSource: Space-Track

Epoca: Sep 13, 2026, 22:36 UTC

1 12532U 76077DM  26256.94205229  .00000891  00000-0  37191-2 0  9995
2 12532 102.1397 261.2056 0244538 106.3906 324.7441 12.78559009392152

Traccia DELTA 1 DEB in tempo reale con AllMySat

Download on the App Store